Regional Weather Roundup
Issued by NWS

Home | Current Version | Previous Version | Text Only | Print | Product List | Glossary On
Versions: 1 2 3 4 5 6 7 8 9 10 11 12 13 14 15 16 17 18 19 20 21 22 23 24 25 26 27 28 29 30 31 32 33 34 35 36 37 38 39 40 41 42 43 44 45 46 47 48 49 50
000
ASUS43 KLOT 032200
RWRIL

ILLINOIS REGIONAL WEATHER ROUNDUP
NATIONAL WEATHER SERVICE CHICAGO/ROMEOVILLE IL
400 PM CST TUE MAR 03 2015

NOTE: "FAIR" INDICATES FEW OR NO CLOUDS BELOW 12,000 FEET WITH NO
SIGNIFICANT WEATHER AND/OR OBSTRUCTIONS TO VISIBILITY.

* THESE STATIONS ARE NOT UNDER NWS QUALITY CONTROL. THEY ALSO MAY NOT
  REPORT WEATHER SUCH AS PRECIPITATION OR FOG.

ILZ001-002-007-009-015-016-024-032300-
NORTHWEST ILLINOIS

CITY           SKY/WX    TMP DP  RH WIND       PRES   REMARKS
MOLINE         CLOUDY    35  29  78 W17G24    29.75R WCI  25
STERLING*      CLOUDY    34  30  86 W16       29.73R WCI  23
$$

ILZ003-004-008-010-011-017-018-032300-
NORTH CENTRAL ILLINOIS

CITY           SKY/WX    TMP DP  RH WIND       PRES   REMARKS
ROCKFORD       CLOUDY    33  28  81 W14       29.70R WCI  23
FREEPORT*      CLOUDY    32  28  85 W15       29.71R WCI  22
DE KALB*       CLOUDY    32  29  90 W17G24    29.68R WCI  21
$$

ILZ005-006-012>014-019>023-032300-
NORTHEAST ILLINOIS

CITY           SKY/WX    TMP DP  RH WIND       PRES   REMARKS
CHICAGO-OHARE  CLOUDY    34  29  82 W15G23    29.66R WCI  24
CHICAGO-MIDWAY CLOUDY    37  31  78 W15G25    29.69R WCI  28
AURORA         CLOUDY    34  30  85 W17       29.69R WCI  23
LANSING*       CLOUDY    35  32  88 W14G24    29.69R WCI  26
WAUKEGAN       CLOUDY    33  29  85 W8G20     29.63R WCI  26
DUPAGE AIRPORT CLOUDY    34  30  85 W13       29.66R WCI  25
WHEELING       CLOUDY    34  29  82 W10       29.67S WCI  26
NORTHERLY ISL    N/A     35  30  82 NW12        N/A  WCI  27
$$

LMZ740>746-032300-
SOUTHERN LAKE MICHIGAN

STATION/POSITION SKY/WX   TEMP    WIND        PRES    VSBY  WAVE
                          AIR SEA DIR/SP/G                  HT/PER
                          (F)     (DEG/KT/KT) (MB)    (MI)  (FT/S)
WAUKEGAN HARBOR            34                   N/A
HARRISON CRIB              35     270/ 20/ 27   N/A
BURNHAM HARBOR             35     280/  7/ 15   N/A
CALUMET HARBOR             36     240/ 10/ 17 1003.9R
MICHIGAN CITY              34     220/ 18/ 21   N/A
$$

ILZ025>027-034>036-040-047-049-050-058-095>099-032300-
WEST-CENTRAL ILLINOIS

CITY           SKY/WX    TMP DP  RH WIND       PRES   REMARKS
QUINCY         CLOUDY    38  36  92 W13       29.81R FOG     WCI  30
MACOMB*        CLOUDY    35  34  96 NW15      29.83R WCI  25
$$

ILZ028>032-037-038-041>044-048-051>054-059>061-032300-
CENTRAL ILLINOIS

CITY           SKY/WX    TMP DP  RH WIND       PRES   REMARKS
DECATUR        CLOUDY    39  37  92 W10       29.78R FOG     WCI  32
PEORIA         CLOUDY    38  33  82 W12       29.77R WCI  30
SPRINGFIELD    CLOUDY    37  35  92 W12       29.80R FOG     WCI  29
TAYLORVILLE    NOT AVBL
$$

ILZ033-039-045-046-055>057-062-063-032300-
EAST-CENTRAL ILLINOIS

CITY           SKY/WX    TMP DP  RH WIND       PRES   REMARKS
CHAMPAIGN      CLOUDY    36  34  92 W15       29.77R FOG     WCI  27
MATTOON        CLOUDY    39  39 100 W10G32    29.79R WCI  32
$$

ILZ079-100>102-032300-
SOUTHWEST ILLINOIS

CITY           SKY/WX    TMP DP  RH WIND       PRES   REMARKS
BELLEVILLE     DRZL/FOG  41  41 100 CALM      29.81R VSB 1/2
CAHOKIA*       CLOUDY    46  45  96 W5        29.83R
$$

ILZ064>066-069>071-074>076-080>082-084>086-088>090-092>094-032300-
SOUTH-CENTRAL ILLINOIS

CITY           SKY/WX    TMP DP  RH WIND       PRES   REMARKS
CARBONDALE     CLOUDY    44  42  93 S8        29.85R
MARION         CLOUDY    45  43  93 SW12      29.85R
MT. VERNON     CLOUDY    43  37  81 SW10      29.82F VSB 1
$$

ILZ067-068-072-073-078-083-087-091-032300-
SOUTHEAST ILLINOIS

CITY           SKY/WX    TMP DP  RH WIND       PRES   REMARKS
LAWRENCEVILLE  FOG       41  40  96 SW10      29.81S VSB<1/4
$$

ABBREVIATIONS USED IN REMARKS
   TC - TEMPERATURE IN CELSIUS
  WCI - WIND CHILL INDEX
   HX - HEAT INDEX
  VSB - VISIBILITY
$$



USA.gov is the U.S. government's official web portal to all federal, state and local government web resources and services.